• In Latvia
  • List of Countries
  • For 7 days
  • Water Temperature
  • Satellite Maps
  • Weather Map
  • Weather Widgets
  • user-avatar
    Login

    Hourly Weather Kamennomostskiy

    Today, 17 July, Tuesday

    Time Temperature Precipitation Wind Pressure Humidity
    00:00 +18°C° 0 mm 3 mps 719 mmHg 76%
    01:00 +18°C° 0 mm 3 mps 719 mmHg 76%
    02:00 +18°C° 0 mm 3 mps 719 mmHg 76%
    03:00 +18°C° 0 mm 3 mps 719 mmHg 76%
    04:00 +18°C° 0 mm 3 mps 719 mmHg 77%
    05:00 +18°C° 0 mm 3 mps 719 mmHg 78%
    06:00 +19°C° 0 mm 3 mps 719 mmHg 78%
    07:00 +21°C° 0 mm 3 mps 719 mmHg 71%
    08:00 +24°C° 0 mm 3 mps 719 mmHg 63%
    09:00 +26°C° 0 mm 3 mps 719 mmHg 55%
    10:00 +27°C° 0 mm 4 mps 719 mmHg 52%
    11:00 +28°C° 0 mm 4 mps 720 mmHg 48%
    12:00 +29°C° 0 mm 4 mps 720 mmHg 45%
    13:00 +29°C° 0.1 mm 4 mps 720 mmHg 47%
    14:00 +28°C° 0.1 mm 4 mps 720 mmHg 49%
    15:00 +28°C° 0.1 mm 4 mps 720 mmHg 51%
    16:00 +28°C° 0.3 mm 4 mps 720 mmHg 55%
    17:00 +27°C° 0.3 mm 4 mps 720 mmHg 60%
    18:00 +26°C° 0.3 mm 3 mps 720 mmHg 64%
    19:00 +24°C° 0.2 mm 3 mps 720 mmHg 70%
    20:00 +21°C° 0.2 mm 2 mps 720 mmHg 76%
    21:00 +20°C° 0.2 mm 2 mps 720 mmHg 82%
    22:00 +19°C° 0.2 mm 2 mps 720 mmHg 83%
    23:00 +18°C° 0.2 mm 2 mps 719 mmHg 84%

    Tomorrow, 18 July, Wednesday

    Time Temperature Precipitation Wind Pressure Humidity
    00:00 +18°C° 0.2 mm 2 mps 719 mmHg 85%
    01:00 +18°C° 0 mm 2 mps 719 mmHg 83%
    02:00 +17°C° 0 mm 2 mps 719 mmHg 82%
    03:00 +17°C° 0 mm 2 mps 719 mmHg 81%
    04:00 +17°C° 0 mm 2 mps 719 mmHg 79%
    05:00 +17°C° 0 mm 2 mps 719 mmHg 78%
    06:00 +18°C° 0 mm 2 mps 719 mmHg 77%
    07:00 +21°C° 0 mm 1 mps 719 mmHg 69%
    08:00 +24°C° 0 mm 1 mps 719 mmHg 61%
    09:00 +27°C° 0 mm 1 mps 719 mmHg 53%
    10:00 +28°C° 0 mm 1 mps 719 mmHg 50%
    11:00 +29°C° 0 mm 2 mps 719 mmHg 46%
    12:00 +30°C° 0 mm 2 mps 719 mmHg 43%
    13:00 +30°C° 0 mm 2 mps 719 mmHg 45%
    14:00 +30°C° 0 mm 2 mps 719 mmHg 47%
    15:00 +29°C° 0 mm 2 mps 718 mmHg 49%
    16:00 +29°C° 0.2 mm 1 mps 718 mmHg 54%
    17:00 +28°C° 0.2 mm 1 mps 718 mmHg 58%
    18:00 +28°C° 0.2 mm 1 mps 718 mmHg 63%
    19:00 +26°C° 0.1 mm 1 mps 718 mmHg 68%
    20:00 +24°C° 0.1 mm 1 mps 718 mmHg 74%
    21:00 +22°C° 0.1 mm 1 mps 718 mmHg 80%
    22:00 +21°C° 0.2 mm 1 mps 718 mmHg 82%
    23:00 +21°C° 0.2 mm 1 mps 718 mmHg 84%

    Day after tomorrow, 19 July, Thursday

    Time Temperature Precipitation Wind Pressure Humidity
    00:00 +20°C° 0.2 mm 1 mps 717 mmHg 85%
    01:00 +20°C° 0 mm 1 mps 717 mmHg 82%
    02:00 +20°C° 0 mm 1 mps 717 mmHg 78%
    03:00 +20°C° 0 mm 1 mps 717 mmHg 75%
    04:00 +20°C° 0 mm 1 mps 717 mmHg 72%
    05:00 +20°C° 0 mm 1 mps 717 mmHg 70%
    06:00 +19°C° 0 mm 2 mps 717 mmHg 67%
    07:00 +22°C° 0 mm 1 mps 718 mmHg 61%
    08:00 +25°C° 0 mm 1 mps 718 mmHg 54%
    09:00 +28°C° 0 mm 1 mps 719 mmHg 48%
    10:00 +29°C° 0.1 mm 1 mps 719 mmHg 46%
    11:00 +30°C° 0.1 mm 1 mps 719 mmHg 44%
    12:00 +31°C° 0.1 mm 1 mps 719 mmHg 42%
    13:00 +31°C° 0.1 mm 1 mps 719 mmHg 43%
    14:00 +31°C° 0.1 mm 1 mps 719 mmHg 44%
    15:00 +31°C° 0.1 mm 1 mps 719 mmHg 45%
    16:00 +31°C° 0.4 mm 1 mps 719 mmHg 50%
    17:00 +30°C° 0.4 mm 1 mps 719 mmHg 54%
    18:00 +30°C° 0.4 mm 1 mps 719 mmHg 58%
    19:00 +27°C° 0.2 mm 1 mps 719 mmHg 63%
    20:00 +25°C° 0.2 mm 1 mps 719 mmHg 69%
    21:00 +23°C° 0.2 mm 1 mps 719 mmHg 74%
    22:00 +22°C° 0 mm 1 mps 718 mmHg 75%
    23:00 +22°C° 0 mm 1 mps 718 mmHg 75%

    20 July, Friday

    Time Temperature Precipitation Wind Pressure Humidity
    00:00 +20°C° 0 mm 2 mps 718 mmHg 76%
    01:00 +20°C° 0 mm 2 mps 718 mmHg 75%
    02:00 +20°C° 0 mm 2 mps 718 mmHg 74%
    03:00 +19°C° 0 mm 2 mps 718 mmHg 73%
    04:00 +20°C° 0.1 mm 1 mps 718 mmHg 73%
    05:00 +20°C° 0.1 mm 1 mps 719 mmHg 73%
    06:00 +20°C° 0.1 mm 1 mps 719 mmHg 73%
    07:00 +23°C° 0 mm 1 mps 719 mmHg 66%
    08:00 +26°C° 0 mm 1 mps 719 mmHg 60%
    09:00 +27°C° 0 mm 0 mps 720 mmHg 54%
    10:00 +30°C° 0 mm 1 mps 720 mmHg 50%
    11:00 +31°C° 0 mm 1 mps 720 mmHg 46%
    12:00 +33°C° 0 mm 1 mps 720 mmHg 42%
    13:00 +34°C° 0.4 mm 2 mps 719 mmHg 45%
    14:00 +32°C° 0.4 mm 2 mps 719 mmHg 47%
    15:00 +32°C° 0.4 mm 2 mps 719 mmHg 50%
    16:00 +32°C° 1.4 mm 2 mps 719 mmHg 54%
    17:00 +31°C° 1.4 mm 1 mps 719 mmHg 59%
    18:00 +30°C° 1.4 mm 1 mps 719 mmHg 63%
    19:00 +28°C° 1.4 mm 1 mps 719 mmHg 69%
    20:00 +26°C° 1.4 mm 1 mps 719 mmHg 74%
    21:00 +23°C° 1.4 mm 1 mps 719 mmHg 80%
    22:00 +23°C° 1 mm 1 mps 719 mmHg 82%
    23:00 +22°C° 1 mm 1 mps 719 mmHg 84%

    21 July, Saturday

    Time Temperature Precipitation Wind Pressure Humidity
    00:00 +21°C° 1 mm 2 mps 719 mmHg 85%
    01:00 +20°C° 0.2 mm 2 mps 719 mmHg 86%
    02:00 +21°C° 0.2 mm 1 mps 719 mmHg 86%
    03:00 +21°C° 0.2 mm 1 mps 719 mmHg 87%
    04:00 +21°C° 0.7 mm 1 mps 719 mmHg 87%
    05:00 +21°C° 0.7 mm 1 mps 719 mmHg 88%
    06:00 +20°C° 0.7 mm 2 mps 719 mmHg 89%
    07:00 +23°C° 0.5 mm 1 mps 720 mmHg 81%
    08:00 +25°C° 0.5 mm 1 mps 720 mmHg 74%
    09:00 +27°C° 0.5 mm 1 mps 720 mmHg 67%
    10:00 +28°C° 0.7 mm 1 mps 720 mmHg 65%
    11:00 +29°C° 0.7 mm 2 mps 720 mmHg 63%
    12:00 +30°C° 0.7 mm 2 mps 720 mmHg 61%
    13:00 +31°C° 0.9 mm 2 mps 720 mmHg 60%
    14:00 +31°C° 0.9 mm 1 mps 720 mmHg 59%
    15:00 +31°C° 0.9 mm 1 mps 720 mmHg 58%
    16:00 +30°C° 1 mm 1 mps 720 mmHg 62%
    17:00 +30°C° 1 mm 1 mps 720 mmHg 66%
    18:00 +29°C° 1 mm 1 mps 720 mmHg 70%
    19:00 +27°C° 0.7 mm 1 mps 720 mmHg 75%
    20:00 +26°C° 0.7 mm 1 mps 720 mmHg 79%
    21:00 +24°C° 0.7 mm 1 mps 720 mmHg 83%
    22:00 +23°C° 0.5 mm 1 mps 719 mmHg 85%
    23:00 +23°C° 0.5 mm 1 mps 719 mmHg 86%

    22 July, Sunday

    Time Temperature Precipitation Wind Pressure Humidity
    00:00 +22°C° 0.5 mm 1 mps 719 mmHg 88%
    01:00 +22°C° 0.2 mm 1 mps 719 mmHg 88%
    02:00 +21°C° 0.2 mm 1 mps 719 mmHg 88%
    03:00 +21°C° 0.2 mm 1 mps 719 mmHg 88%
    04:00 +21°C° 0.3 mm 1 mps 719 mmHg 88%
    05:00 +21°C° 0.3 mm 1 mps 719 mmHg 88%
    06:00 +21°C° 0.3 mm 1 mps 719 mmHg 88%
    07:00 +24°C° 0.1 mm 1 mps 719 mmHg 80%
    08:00 +26°C° 0.1 mm 1 mps 720 mmHg 72%
    09:00 +29°C° 0.1 mm 1 mps 720 mmHg 64%
    10:00 +29°C° 0.9 mm 1 mps 719 mmHg 63%
    11:00 +30°C° 0.9 mm 1 mps 719 mmHg 63%
    12:00 +31°C° 0.9 mm 2 mps 719 mmHg 62%
    13:00 +30°C° 1.6 mm 2 mps 719 mmHg 64%
    14:00 +30°C° 1.6 mm 2 mps 719 mmHg 67%
    15:00 +30°C° 1.6 mm 2 mps 718 mmHg 69%
    16:00 +29°C° 1.3 mm 2 mps 718 mmHg 72%
    17:00 +28°C° 1.3 mm 2 mps 718 mmHg 75%
    18:00 +27°C° 1.3 mm 1 mps 718 mmHg 78%
    19:00 +26°C° 0.3 mm 1 mps 718 mmHg 81%
    20:00 +25°C° 0.3 mm 1 mps 718 mmHg 84%
    21:00 +23°C° 0.3 mm 1 mps 718 mmHg 87%
    22:00 +23°C° 0 mm 1 mps 718 mmHg 88%
    23:00 +22°C° 0 mm 1 mps 718 mmHg 88%
    Show more